Tracking 20623 objects as of 3-Apr-2020
HD Live streaming from Space Station
objects crossing your sky now

SL-8 R/B

Track SL-8 R/B now!
10-day predictions


NORAD ID: 12836
Int'l Code: 1981-091B
Perigee: 967.2 km
Apogee: 999.5 km
Inclination: 82.9 °
Period: 104.6 minutes
Semi major axis: 7354 km
RCS: 4.3972 m2 (large)
Launch date: September 18, 1981
Source: Commonwealth of Independent States (former USSR) (CIS)
Launch site: PLESETSK MISSILE AND SPACE COMPLEX (PKMTR)

Note: This is a ROCKET BODY
aabbcc
Your satellite tracking list
Your tracking list is empty




NASA's NSSDC Master Catalog

Two Line Element Set (TLE):
1 12836U 81091B   20093.83760348 +.00000007 +00000-0 -83674-5 0  9993
2 12836 082.9205 038.0604 0021982 216.6820 199.9048 13.76523417319211
Source of the keplerian elements: AFSPC